[[{"header":{"parameterUnit":"m.s-1","parameterCategory":1,"la1":30.2991,"la2":30.254,"lo1":-89.0895,"lo2":-89.0444,"dy":0.0017,"dx":0.0017,"nx":28,"ny":28,"refTime":"2023-08-22T09:00:00:Z","depth":0,"parameterNumber":2,"parameterNumberName":"U-component_of_WINDS"},"data":[0,0,0,0,0,0,0,0,0,0,0,0,0,0,0,0,0,0,0,0,0,0,0,0,0,0,0,0,0,0,0,0,0,0,0,0,0,0,0,0,0,0,0,0,0,0,0,0,0,0,0,0,0,0,0,0,0,0,-2.281,-2.2809,0,-2.2709,-2.2708,-2.2707,-2.2605,-2.2604,-2.2603,-2.2601,-2.2498,-2.2497,-2.2496,0,0,0,0,0,0,0,0,0,0,0,0,0,-2.2915,-2.2914,-2.281,-2.2809,-2.2808,-2.271,-2.2708,-2.2707,-2.2606,-2.2604,-2.2602,-2.2601,-2.2499,-2.2497,-2.2495,0,0,0,0,0,0,0,0,0,0,0,0,0,-2.2848,-2.2913,-2.281,-2.2745,-2.2739,-2.271,-2.2708,-2.2706,-2.2606,-2.2604,-2.2602,-2.26,-2.2499,-2.2497,-2.2495,-2.2522,0,0,-2.2488,-2.2487,0,0,0,0,0,0,0,0,-2.2852,-2.2844,-2.2756,-2.275,-2.2742,-2.2668,-2.2707,-2.2645,-2.2607,-2.2656,-2.2601,-2.2599,-2.2556,-2.2549,-2.2535,-2.2518,-2.2513,-2.2488,-2.2487,-2.2486,-2.2485,0,0,0,0,0,0,0,-2.2856,-2.2848,-2.277,-2.2755,-2.2746,-2.2721,-2.2709,-2.2695,-2.2619,-2.2652,-2.2644,-2.2634,-2.2552,-2.2537,-2.2532,-2.2512,-2.2488,-2.2486,-2.2485,-2.2484,-2.2512,-2.2514,0,0,0,0,0,0,-2.2871,-2.2852,-2.2773,-2.2767,-2.2793,-2.2721,-2.2708,-2.2694,-2.2619,-2.2606,-2.2636,-2.2629,-2.2542,-2.2535,-2.2528,-2.2556,-2.2486,-2.2484,-2.2483,-2.251,-2.2513,-2.2515,0,0,0,0,0,0,-2.2874,-2.2865,-2.2777,-2.2808,-2.2795,-2.2721,-2.2707,-2.2693,-2.2678,-2.2607,-2.2593,-2.2634,-2.254,-2.2531,-2.2525,-2.2551,-2.2483,-2.2481,-2.2508,-2.2511,-2.2514,-2.2611,0,0,0,0,0,0,-2.2877,-2.2866,-2.2876,-2.2809,-2.2793,-2.2776,-2.2708,-2.2692,-2.2674,-2.2665,-2.2602,-2.2589,-2.2538,-2.2529,-2.2523,-2.2546,-2.2479,-2.2505,-2.2509,-2.2513,-2.2605,-2.2617,-2.2627,0,0,0,0,0,-2.2881,-2.2907,-2.2877,-2.2868,-2.2804,-2.2778,-2.2769,-2.2709,-2.2677,-2.2686,-2.264,-2.2591,-2.2549,-2.2529,-2.2521,-2.2545,-2.2503,-2.2508,-2.2513,-2.26,-2.2615,-2.2627,0,0,0,0,0,0,-2.2979,-2.2897,-2.2863,-2.2868,-2.2831,-2.2761,-2.277,-2.2727,-2.2698,-2.2691,-2.2618,-2.2604,-2.2607,-2.2575,-2.2554,-2.2568,-2.2519,-2.2523,-2.2589,-2.2602,-2.2613,-2.2621,-2.2477,0,0,0,0,0,-2.3001,-2.2987,-2.2916,-2.2927,-2.2911,-2.2844,-2.2831,-2.2788,-2.2747,-2.273,-2.2684,-2.2646,-2.2624,-2.2611,-2.2586,-2.26,-2.2585,-2.2613,-2.2624,-2.2633,-2.2637,-2.2643,-2.2655,-2.2531,-2.2531,-2.253,0,0,-2.3047,-2.3,-2.2996,-2.2946,-2.2912,-2.29,-2.2832,-2.2821,-2.2811,-2.2728,-2.272,-2.2685,-2.2638,-2.2642,-2.2641,-2.2615,-2.2668,-2.2639,-2.2647,-2.2646,-2.2649,-2.2661,-2.2671,-2.2534,-2.2533,-2.2533,0,0,-2.3124,-2.3087,-2.3093,-2.3061,-2.3011,-2.2966,-2.2968,-2.2905,-2.2878,-2.2869,-2.2807,-2.2794,-2.2758,-2.2727,-2.2706,-2.2773,-2.2727,-2.2767,-2.2825,-2.2831,-2.2841,-2.2849,-2.2874,-2.2884,-2.2771,-2.2771,-2.2771,0,-2.3187,-2.3166,-2.3101,-2.3095,-2.3075,-2.3,-2.3006,-2.2977,-2.2922,-2.291,-2.2882,-2.2835,-2.2798,-2.2794,-2.2811,-2.2796,-2.2796,-2.2774,-2.2845,-2.2853,-2.2859,-2.2882,-2.2892,-2.2776,-2.2776,-2.2775,-2.2775,0,-2.3246,-2.3232,-2.3243,-2.3192,-2.3173,-2.3173,-2.3109,-2.3098,-2.3057,-2.3016,-2.3008,-2.296,-2.2926,-2.2921,-2.2881,-2.2913,-2.2898,-2.2858,-2.2808,-2.2878,-2.2898,-2.2906,-2.2784,-2.2782,-2.278,-2.2779,0,0,-2.3382,-2.3296,-2.3301,-2.3278,-2.3217,-2.3205,-2.3202,-2.3168,-2.316,-2.3125,-2.3121,-2.3092,-2.3055,-2.3032,-2.2987,-2.2993,-2.305,-2.2952,-2.295,-2.2973,-2.3083,-2.3115,-2.3126,-2.3019,-2.3021,-2.3022,-2.3088,0,-2.345,-2.3439,-2.3381,-2.3388,-2.3375,-2.3304,-2.3301,-2.3264,-2.3225,-2.3209,-2.3166,-2.3147,-2.3099,-2.3085,-2.3088,-2.3043,-2.3072,-2.3037,-2.3015,-2.3015,-2.3031,-2.3136,-2.3168,-2.3233,-2.3095,-2.3096,-2.3097,0,-2.3527,-2.3497,-2.3502,-2.3443,-2.3435,-2.3434,-2.3398,-2.3383,-2.334,-2.3312,-2.3287,-2.3237,-2.323,-2.3183,-2.3172,-2.315,-2.3138,-2.3115,-2.3116,-2.3112,-2.3061,-2.3136,-2.3252,-2.3262,-2.3109,-2.3108,-2.3107,0,-2.3627,-2.3588,-2.3586,-2.3568,-2.3498,-2.3499,-2.347,-2.3425,-2.3408,-2.3378,-2.3367,-2.3336,-2.3319,-2.3296,-2.324,-2.3211,-2.3237,-2.3184,-2.3214,-2.3215,-2.3223,-2.3223,-2.3339,-2.3213,-2.3213,-2.3213,-2.3213,0,-2.3709,-2.3716,-2.363,-2.363,-2.3635,-2.3568,-2.3575,-2.354,-2.35,-2.3491,-2.3428,-2.3421,-2.3346,-2.3331,-2.3287,-2.3286,-2.3278,-2.3256,-2.3244,-2.3262,-2.3265,-2.3254,-2.3248,-2.3216,-2.3215,-2.3215,-2.3214,0,-2.3822,-2.3765,-2.3759,-2.3694,-2.3678,-2.3685,-2.3629,-2.3626,-2.3583,-2.3573,-2.3567,-2.3501,-2.348,-2.3421,-2.3385,-2.3355,-2.3367,-2.3345,-2.3382,-2.3375,-2.3408,-2.3406,-2.3522,-2.3534,-2.34,-2.3401,-2.3402,0,-2.3879,-2.3882,-2.3818,-2.3807,-2.3781,-2.3765,-2.3748,-2.3683,-2.3669,-2.362,-2.3623,-2.3597,-2.3573,-2.3543,-2.3492,-2.3464,-2.3441,-2.3483,-2.3436,-2.3455,-2.3443,-2.3444,-2.3445,-2.3494,-2.3496,-2.3497,-2.3498,0,-2.3986,-2.3958,-2.3936,-2.3905,-2.3887,-2.386,-2.3828,-2.3824,-2.375,-2.3737,-2.3715,-2.3697,-2.366,-2.3635,-2.36,-2.357,-2.3523,-2.3513,-2.3519,-2.3538,-2.356,-2.355,-2.3412,-2.3511,-2.351,-2.3509,-2.3508,-2.3508,-2.4073,-2.4073,-2.4028,-2.4007,-2.3976,-2.3949,-2.3943,-2.39,-2.3881,-2.3846,-2.3808,-2.3791,-2.3748,-2.3695,-2.3669,-2.3655,-2.3629,-2.3637,-2.3639,-2.3643,-2.3652,-2.3562,-2.3648,-2.3647,-2.3647,-2.3646,-2.3646,0,-2.4178,-2.4146,-2.4126,-2.4085,-2.4068,-2.4025,-2.3988,-2.3977,-2.3963,-2.3926,-2.3904,-2.3879,-2.3855,-2.3803,-2.3774,-2.3773,-2.3751,-2.3768,-2.3768,-2.3762,-2.3675,-2.3674,-2.3786,-2.3786,-2.3786,-2.3786,-2.3786,-2.3786,-2.4231,-2.4229,-2.4196,-2.4179,-2.4146,-2.4128,-2.4112,-2.4086,-2.4057,-2.4032,-2.4012,-2.3978,-2.3935,-2.3903,-2.388,-2.3865,-2.3858,-2.3882,-2.3861,-2.3781,-2.3768,-2.3755,-2.3754,-2.3881,-2.3881,-2.3949,-2.3949,-2.395]},{"header":{"parameterUnit":"m.s-1","parameterCategory":1,"la1":30.2991,"la2":30.254,"lo1":-89.0895,"lo2":-89.0444,"dy":0.0017,"dx":0.0017,"nx":28,"ny":28,"refTime":"2023-08-22T09:00:00:Z","depth":0,"parameterNumber":3,"parameterNumberName":"V-component_of_WINDS"},"data":[0,0,0,0,0,0,0,0,0,0,0,0,0,0,0,0,0,0,0,0,0,0,0,0,0,0,0,0,0,0,0,0,0,0,0,0,0,0,0,0,0,0,0,0,0,0,0,0,0,0,0,0,0,0,0,0,0,0,-1.8126,-1.8126,0,-1.8176,-1.8177,-1.8177,-1.8169,-1.8168,-1.8167,-1.8166,-1.8216,-1.8218,-1.822,0,0,0,0,0,0,0,0,0,0,0,0,0,-1.802,-1.8022,-1.8126,-1.8127,-1.8127,-1.8176,-1.8177,-1.8177,-1.8169,-1.8168,-1.8167,-1.8166,-1.8215,-1.8218,-1.822,0,0,0,0,0,0,0,0,0,0,0,0,0,-1.8068,-1.8023,-1.8126,-1.8129,-1.813,-1.8176,-1.8177,-1.8178,-1.8169,-1.8168,-1.8167,-1.8166,-1.8215,-1.8218,-1.8221,-1.8266,0,0,-1.8231,-1.8232,0,0,0,0,0,0,0,0,-1.8065,-1.8072,-1.8128,-1.8129,-1.813,-1.8165,-1.8158,-1.8207,-1.817,-1.8154,-1.8166,-1.8165,-1.82,-1.8204,-1.8217,-1.8269,-1.8271,-1.8231,-1.8233,-1.8234,-1.8235,0,0,0,0,0,0,0,-1.8062,-1.807,-1.8146,-1.8129,-1.813,-1.8127,-1.8132,-1.8167,-1.8184,-1.8156,-1.8155,-1.8161,-1.82,-1.8213,-1.8218,-1.8272,-1.8231,-1.8234,-1.8236,-1.8237,-1.8363,-1.8364,0,0,0,0,0,0,-1.8058,-1.8067,-1.8144,-1.8147,-1.8094,-1.813,-1.8136,-1.8155,-1.8183,-1.8186,-1.8162,-1.8161,-1.8209,-1.8214,-1.8219,-1.8275,-1.8234,-1.8237,-1.8239,-1.8362,-1.8363,-1.8365,0,0,0,0,0,0,-1.8056,-1.8065,-1.8142,-1.8107,-1.8117,-1.8133,-1.8155,-1.8157,-1.817,-1.8188,-1.8191,-1.8173,-1.8208,-1.8215,-1.8255,-1.8276,-1.8239,-1.8241,-1.836,-1.8362,-1.8364,-1.8386,0,0,0,0,0,0,-1.8053,-1.8064,-1.8082,-1.8107,-1.8118,-1.8178,-1.8156,-1.8159,-1.8176,-1.8174,-1.8199,-1.8202,-1.8207,-1.825,-1.8258,-1.828,-1.8244,-1.8358,-1.8361,-1.8363,-1.8383,-1.8388,-1.8393,0,0,0,0,0,-1.8049,-1.8086,-1.8083,-1.8093,-1.8142,-1.8179,-1.8185,-1.8191,-1.8177,-1.8195,-1.8207,-1.8201,-1.8272,-1.8254,-1.8263,-1.8286,-1.8357,-1.836,-1.8363,-1.8381,-1.8387,-1.8393,0,0,0,0,0,0,-1.8063,-1.809,-1.8087,-1.8133,-1.8154,-1.8177,-1.8201,-1.8197,-1.8222,-1.8219,-1.8225,-1.8231,-1.8271,-1.8282,-1.8262,-1.8332,-1.8313,-1.8318,-1.8323,-1.8329,-1.8334,-1.8331,-1.8247,0,0,0,0,0,-1.8071,-1.81,-1.8121,-1.816,-1.8171,-1.8184,-1.82,-1.8203,-1.8224,-1.8233,-1.8247,-1.8268,-1.8295,-1.8312,-1.8338,-1.8384,-1.839,-1.8405,-1.8409,-1.8413,-1.8418,-1.8443,-1.845,-1.8376,-1.8376,-1.8375,0,0,-1.8089,-1.8107,-1.8125,-1.8164,-1.818,-1.8209,-1.8191,-1.8223,-1.8244,-1.8237,-1.8276,-1.8288,-1.831,-1.8354,-1.8374,-1.8365,-1.8439,-1.8417,-1.842,-1.8423,-1.8447,-1.8454,-1.846,-1.8378,-1.8377,-1.8377,0,0,-1.8137,-1.8153,-1.8188,-1.8204,-1.8229,-1.8237,-1.8246,-1.8269,-1.8277,-1.8316,-1.8312,-1.8336,-1.8383,-1.8399,-1.8414,-1.8466,-1.8462,-1.8474,-1.85,-1.8524,-1.853,-1.8535,-1.8554,-1.8561,-1.8479,-1.8479,-1.8479,0,-1.8156,-1.82,-1.8205,-1.8238,-1.8254,-1.825,-1.8284,-1.83,-1.8331,-1.8343,-1.8332,-1.839,-1.8405,-1.8452,-1.8465,-1.8477,-1.8486,-1.8472,-1.8529,-1.8534,-1.8539,-1.8557,-1.8564,-1.848,-1.848,-1.848,-1.848,0,-1.8222,-1.8253,-1.8277,-1.8309,-1.8328,-1.8361,-1.8371,-1.839,-1.839,-1.8399,-1.8439,-1.8456,-1.8486,-1.8497,-1.8497,-1.8544,-1.8537,-1.8528,-1.8509,-1.8548,-1.8565,-1.8572,-1.8482,-1.8482,-1.8481,-1.8481,0,0,-1.8281,-1.8315,-1.8324,-1.8338,-1.8365,-1.8388,-1.842,-1.8449,-1.8465,-1.8487,-1.8514,-1.8553,-1.8544,-1.856,-1.8562,-1.8583,-1.8624,-1.8571,-1.8572,-1.8581,-1.8676,-1.8684,-1.8692,-1.8621,-1.8622,-1.8623,-1.8675,0,-1.8332,-1.839,-1.8395,-1.8447,-1.8475,-1.847,-1.8498,-1.8517,-1.8526,-1.8551,-1.856,-1.8588,-1.8574,-1.8583,-1.8604,-1.8615,-1.8644,-1.8611,-1.8646,-1.8647,-1.8641,-1.8701,-1.871,-1.8758,-1.8681,-1.8682,-1.8683,0,-1.8399,-1.8424,-1.8478,-1.8501,-1.8513,-1.8538,-1.8565,-1.8588,-1.8609,-1.8614,-1.8632,-1.8631,-1.8663,-1.8642,-1.8686,-1.8664,-1.8678,-1.8685,-1.8687,-1.8692,-1.8668,-1.8708,-1.8773,-1.8781,-1.8694,-1.8693,-1.8692,0,-1.8438,-1.8484,-1.8523,-1.8535,-1.8562,-1.8579,-1.8591,-1.8611,-1.8628,-1.8651,-1.8662,-1.8688,-1.8702,-1.8722,-1.8727,-1.8712,-1.8772,-1.8751,-1.8776,-1.8776,-1.879,-1.879,-1.886,-1.8798,-1.8798,-1.8798,-1.8797,0,-1.8494,-1.8528,-1.854,-1.8564,-1.8602,-1.8607,-1.8643,-1.8654,-1.8671,-1.8696,-1.8693,-1.8717,-1.8722,-1.8747,-1.8751,-1.8787,-1.8794,-1.8798,-1.8799,-1.8799,-1.8799,-1.8809,-1.8806,-1.8799,-1.8799,-1.8799,-1.8798,0,-1.8544,-1.8554,-1.8596,-1.8618,-1.8624,-1.8651,-1.8669,-1.8691,-1.8699,-1.8731,-1.8739,-1.8751,-1.878,-1.8787,-1.8821,-1.8824,-1.8867,-1.8864,-1.886,-1.886,-1.8885,-1.8883,-1.8965,-1.8977,-1.8907,-1.8907,-1.8908,0,-1.8581,-1.8607,-1.8631,-1.8648,-1.8661,-1.8688,-1.8706,-1.8711,-1.8729,-1.8754,-1.8774,-1.8802,-1.8825,-1.887,-1.8882,-1.8907,-1.8906,-1.8933,-1.891,-1.8909,-1.8907,-1.8906,-1.8908,-1.8938,-1.8938,-1.8939,-1.8939,0,-1.8644,-1.8647,-1.8673,-1.87,-1.8721,-1.8742,-1.8762,-1.8776,-1.8784,-1.8804,-1.8834,-1.8851,-1.8886,-1.8914,-1.894,-1.8951,-1.8947,-1.8946,-1.8954,-1.8955,-1.8952,-1.8954,-1.8873,-1.8945,-1.8944,-1.8944,-1.8944,-1.8943,-1.8689,-1.8711,-1.8732,-1.8761,-1.8777,-1.8795,-1.8818,-1.8828,-1.8853,-1.8883,-1.8883,-1.8916,-1.8935,-1.8969,-1.8981,-1.9006,-1.8998,-1.9008,-1.9011,-1.9014,-1.9016,-1.8947,-1.901,-1.901,-1.901,-1.901,-1.901,0,-1.8752,-1.8765,-1.8791,-1.882,-1.8842,-1.8836,-1.8858,-1.8877,-1.8905,-1.8924,-1.8946,-1.898,-1.9007,-1.902,-1.9046,-1.9063,-1.9062,-1.907,-1.9069,-1.9072,-1.9022,-1.9013,-1.9071,-1.9071,-1.9071,-1.9071,-1.9071,-1.9071,-1.8788,-1.8827,-1.8832,-1.8878,-1.889,-1.8922,-1.8935,-1.8952,-1.8967,-1.9005,-1.9028,-1.9036,-1.9052,-1.9079,-1.9103,-1.9107,-1.9117,-1.9126,-1.9128,-1.9081,-1.9075,-1.9069,-1.9061,-1.9128,-1.9128,-1.9176,-1.9177,-1.9177]}]]